Temp_Advection
nan nan nan nan nan nan nan nan nan nan nan nan nan nan nan nan nan nan nan nan nan nan nan nan nan nan nan nan nan nan nan nan nan nan nan nan nan nan nan nan nan nan
nan -0 -0 0 0 -0 0 0 0 -0 -0 0 0 0 0 0 -0 0 0 0 0 0 0 0 0 -0 -0 -0 -0 -0 0 0 0 -0 -0 -0 -0 -0 0 0 0 nan
nan -0 -0 -0 -0 0 0 0 -0 -0 0 0 -0 -0 0 0 -0 0 0 0 0 0 0 0 -0 -0 -0 -0 -0 -0 -0 0 -0 -0 -0 -0 0 -0 0 0 0 nan
nan -0 -0 -0 -0 0 0 0 -0 -0 0 -0 -0 -0 0 0 -0 0 0 0 0 -0 0 0 -0 -0 -0 -0 -0 -0 -0 0 -0 -0 -0 -0 0 0 0 0 0 nan
nan 0 0 0 -0 0 0 -0 -0 -0 0 -0 -0 0 0 0 -0 0 0 -0 0 0 -0 -0 -0 -0 -0 -0 0 0 0 0 -0 -0 -0 -0 0 0 0 -0 -0 nan
nan 0 0 -0 -0 0 -0 -0 -0 0 0 0 0 0 0 0 0 0 0 -0 0 -0 -0 -0 0 0 0 0 -0 0 0 0 -0 -0 -0 -0 0 0 -0 -0 -0 nan
nan 0 0 0 0 -0 -0 -0 0 0 0 0 0 0 0 -0 0 -0 -0 0 -0 -0 -0 0 0 0 -0 -0 -0 -0 -0 0 -0 -0 -0 0 0 0 -0 -0 -0 nan
nan 0 0 0 0 -0 -0 0 0 0 0 0 -0 -0 -0 -0 -0 -0 -0 0 -0 -0 -0 -0 0 0 0 -0 -0 -0 -0 -0 -0 -0 0 0 0 -0 -0 -0 -0 nan
nan 0 0 0 -0 -0 -0 0 0 0 0 -0 -0 -0 -0 -0 -0 -0 0 0 0 0 -0 -0 0 0 0 -0 -0 -0 -0 -0 -0 -0 0 0 0 0 0 0 -0 nan
nan 0 0 0 -0 -0 -0 0 0 0 -0 -0 -0 -0 -0 -0 -0 -0 0 0 0 0 -0 -0 -0 -0 -0 -0 -0 -0 -0 -0 -0 -0 0 0 0 0 0 -0 -0 nan
nan 0 -0 -0 -0 -0 -0 0 0 0 -0 -0 -0 -0 -0 -0 -0 -0 -0 -0 -0 -0 -0 -0 -0 -0 -0 -0 0 0 -0 -0 -0 -0 0 0 0 -0 -0 -0 -0 nan
nan -0 -0 -0 -0 0 0 0 0 0 -0 -0 0 -0 0 -0 -0 -0 -0 -0 -0 -0 -0 -0 0 0 -0 -0 0 0 -0 -0 0 0 0 -0 -0 0 -0 -0 -0 nan
nan 0 0 0 0 0 0 0 0 0 -0 -0 -0 -0 0 -0 -0 -0 -0 -0 -0 -0 -0 -0 -0 0 0 0 0 0 -0 -0 0 0 0 -0 -0 0 -0 -0 -0 nan
nan 0 1 1 0 0 0 0 0 0 0 -0 -0 -0 -0 -0 -0 -0 -0 -0 -0 -0 -0 -0 -0 -0 0 0 0 0 0 -0 -0 0 0 -0 0 0 0 -0 -0 nan
nan 0 0 0 0 0 0 0 0 0 0 -0 -0 0 -0 -0 -0 -0 -0 -0 -0 -0 -0 -0 -0 -0 0 0 0 0 0 0 0 0 -0 -0 -0 0 0 -0 -0 nan
nan 0 0 0 0 0 0 0 0 0 0 0 0 -0 -0 -0 -0 -0 -0 -0 -0 -0 -0 -0 -0 -0 0 0 0 0 0 0 0 0 0 -0 -0 -0 0 0 -0 nan
nan 0 0 0 0 0 0 0 0 -0 0 0 -0 -0 -0 -0 -0 -0 -0 -0 -0 0 -0 -0 -0 -0 0 0 0 0 0 0 0 0 0 0 -0 -0 -0 0 0 nan
nan 0 0 0 0 0 0 0 0 -0 0 0 -0 -0 -0 -0 -0 -0 -0 -0 -0 -0 -0 -0 -0 0 0 0 0 0 0 0 0 0 0 -0 -0 -0 -0 0 0 nan
nan 0 0 0 -0 0 0 0 -0 -0 0 -0 -0 -0 -0 -0 -0 -0 -0 0 -0 -0 -0 -0 -0 0 0 0 0 0 0 -0 0 0 0 -0 -0 -0 -0 0 0 nan
nan 1 0 -0 -0 0 0 0 -0 0 0 -0 -0 -0 -0 -0 -0 -0 -0 0 0 0 0 0 0 0 0 0 0 0 -0 -0 -0 0 0 0 0 0 -0 0 0 nan
nan 0 0 -0 -0 0 0 0 0 0 0 0 0 0 0 0 0 0 0 -0 0 0 0 0 0 0 0 0 0 0 -0 -0 -0 -0 -0 -0 0 0 0 0 1 nan
nan 0 -0 0 1 1 1 0 0 1 1 1 1 1 1 1 1 1 0 0 -0 -0 -0 -0 -0 -0 0 0 1 0 0 -0 -0 -0 0 0 -0 -0 0 0 1 nan
nan 0 0 1 1 1 0 -0 0 1 1 1 1 0 0 0 -0 -0 0 1 0 -0 -0 -0 -0 -0 0 0 0 1 0 0 -0 -0 -0 -0 -0 0 0 0 0 nan
nan 1 1 1 1 1 0 -0 0 1 1 0 -0 -0 0 -0 -1 -0 0 0 0 -0 -0 -0 0 0 -0 -0 0 1 1 1 0 -0 -0 -0 -0 0 1 0 0 nan
nan 1 1 1 1 0 -0 -0 0 0 0 -0 -1 -0 0 -0 -0 0 0 -0 -1 -1 -1 0 1 1 0 0 1 1 1 1 0 0 -0 -0 -0 0 0 1 0 nan
nan nan nan nan nan nan nan nan nan nan nan nan nan nan nan nan nan nan nan nan nan nan nan nan nan nan nan nan nan nan nan nan nan nan nan nan nan nan nan nan nan nan
Wind_Speed
19 19 19 18 18 17 15 14 13 12 12 12 11 10 10 10 10 11 11 11 10 10 10 9 9 9 9 9 8 7 7 7 7 7 7 8 9 9 9 10 10 9
20 19 19 18 17 17 16 14 13 13 12 11 10 10 9 10 11 10 10 11 11 10 10 9 9 9 9 9 9 8 8 8 7 7 7 8 8 9 10 10 10 10
21 20 19 18 17 16 16 15 14 14 13 12 11 11 11 11 11 10 10 11 11 10 10 9 9 9 9 9 9 9 9 9 9 9 9 8 9 9 9 10 10 10
22 21 20 18 16 16 16 15 15 15 14 13 12 12 12 11 11 10 10 11 11 10 9 9 9 9 9 9 9 9 9 9 9 10 10 9 9 8 9 10 11 11
21 20 20 18 16 16 16 17 16 15 15 14 12 12 11 11 11 10 10 10 10 10 9 9 9 9 9 9 9 9 8 8 9 10 10 9 9 8 9 10 11 12
21 20 20 19 17 16 17 17 16 16 15 14 13 12 11 11 10 9 10 10 10 9 9 9 9 9 9 8 8 9 9 8 9 10 10 9 9 9 9 10 11 11
21 20 20 20 19 17 17 17 16 16 15 14 13 13 12 11 10 9 9 9 9 9 9 9 9 9 8 8 8 8 9 9 9 10 10 9 9 10 9 9 10 11
21 20 20 20 19 19 18 17 16 16 15 14 14 13 12 11 9 8 8 8 9 9 9 9 9 8 7 8 8 8 8 9 9 10 9 8 9 9 9 9 10 10
22 21 19 19 20 20 19 18 17 16 16 15 13 12 11 10 8 7 7 8 8 9 9 8 8 8 7 7 7 7 7 8 9 9 9 8 9 9 8 8 10 10
22 21 20 20 20 21 20 19 18 16 15 14 13 12 12 10 9 8 8 8 9 9 9 8 8 8 8 7 7 7 8 8 9 9 9 8 8 8 9 9 10 10
22 22 21 20 21 21 20 19 18 16 15 14 13 14 14 12 10 10 10 10 9 9 9 8 8 8 9 8 7 8 9 9 9 10 10 10 9 10 10 10 11 10
23 23 22 21 21 21 20 19 18 17 15 14 14 15 14 13 12 12 12 12 11 10 9 9 8 9 9 9 8 9 10 10 10 10 11 11 11 11 11 11 11 11
23 23 22 21 21 20 20 20 19 17 16 15 14 15 15 15 15 15 15 14 13 12 11 10 9 9 9 10 10 11 12 12 12 12 12 13 12 11 11 12 12 12
21 21 21 20 18 18 19 21 21 18 16 16 16 17 17 16 16 16 16 16 15 14 13 12 12 12 12 11 11 12 13 14 13 13 14 14 14 13 12 12 12 12
19 19 20 19 17 16 17 19 21 19 17 17 18 19 19 19 18 18 17 17 17 17 16 16 16 15 14 14 14 13 13 14 13 14 15 15 14 14 13 13 13 12
19 18 19 18 17 17 16 17 19 20 20 20 20 20 20 20 20 20 20 20 20 19 19 20 20 18 16 16 16 15 14 14 14 14 15 16 16 15 15 14 13 13
21 20 19 19 19 19 18 18 19 21 22 23 23 23 22 21 20 20 21 22 23 23 22 22 21 19 18 18 18 18 17 16 16 15 16 18 18 17 16 15 14 14
24 22 21 22 22 21 21 21 21 22 23 25 26 25 25 24 23 21 20 21 22 23 23 23 21 20 20 20 20 20 20 19 18 17 18 19 20 19 17 15 14 14
25 24 24 25 25 24 23 23 23 24 25 26 27 27 27 27 27 26 25 23 22 22 22 22 21 21 21 21 22 22 21 21 20 19 19 19 21 21 19 17 15 15
24 25 26 26 26 26 26 26 26 26 26 27 27 28 29 29 29 29 28 27 25 24 23 22 21 20 20 21 22 22 22 20 19 19 19 21 23 23 22 20 18 17
24 25 26 26 27 27 27 27 27 27 27 28 29 29 30 30 29 29 27 26 26 26 25 24 23 22 21 21 22 22 23 23 23 22 21 21 23 24 25 24 22 21
25 25 26 26 27 28 28 28 28 28 28 29 29 29 30 29 28 26 24 23 23 24 24 24 24 24 24 24 23 23 24 26 28 29 29 26 24 23 24 25 25 24
25 25 26 26 26 26 27 27 28 29 29 30 30 29 28 28 27 27 26 25 24 24 24 24 26 26 26 26 26 26 27 27 28 29 31 32 30 26 24 25 27 27
22 23 24 24 23 23 22 23 24 25 26 27 27 27 27 28 28 29 28 28 28 27 27 28 30 30 29 29 30 30 31 31 30 28 28 30 30 29 27 27 28 28
19 20 20 20 20 20 20 21 22 23 24 24 24 24 25 26 27 26 26 27 28 29 31 32 32 33 33 32 33 33 33 34 34 33 32 30 30 29 29 29 29 28
14 15 16 17 16 16 18 19 20 21 22 23 22 21 21 21 22 24 25 25 27 28 30 31 31 31 32 31 32 32 33 35 35 34 33 33 33 34 34 31 29 27
Wind_Direction
213 215 217 220 222 221 221 219 218 217 215 215 220 223 218 216 219 221 227 228 226 226 224 226 234 238 238 240 239 235 237 237 236 242 247 250 253 249 247 250 252 255
214 217 219 221 221 220 219 220 224 224 220 220 222 225 223 221 221 223 227 229 228 227 222 224 236 238 237 238 238 240 244 238 235 245 247 248 256 256 252 252 252 255
216 219 220 222 222 220 218 220 226 226 225 225 223 223 222 221 223 223 222 225 228 228 223 228 238 238 235 236 238 243 247 240 235 243 247 249 256 260 256 253 250 254
217 218 219 222 223 224 223 226 228 225 223 225 223 221 221 223 224 222 220 223 225 227 227 233 238 236 231 233 237 240 244 246 244 247 252 254 257 257 256 253 248 249
218 219 218 219 222 224 225 228 228 222 221 223 222 220 222 223 223 222 226 227 226 227 231 236 238 234 231 232 234 236 240 248 250 251 254 256 255 252 251 252 250 248
219 221 220 219 221 222 223 226 225 221 220 221 220 220 220 220 224 229 232 234 233 232 233 236 237 235 236 238 239 239 237 241 245 248 254 258 257 253 250 251 252 250
217 220 221 221 222 223 223 222 222 222 221 220 218 220 221 223 230 234 233 235 239 238 236 237 237 237 239 243 247 246 241 240 243 247 253 259 259 257 256 257 257 255
217 219 221 223 222 222 222 220 221 222 221 221 219 219 224 229 232 231 230 235 240 240 240 237 234 232 233 241 248 248 245 244 246 249 251 252 255 256 256 260 261 259
215 217 220 222 223 222 221 220 220 220 220 222 223 221 222 225 227 226 227 234 240 241 242 238 232 227 229 239 246 247 249 250 251 253 252 251 254 252 250 257 260 257
214 216 217 220 223 224 223 222 221 222 224 225 225 223 219 218 222 226 227 232 239 242 241 236 229 229 233 239 243 248 252 252 253 256 256 257 258 254 252 259 261 258
214 215 216 218 221 223 224 223 221 222 224 224 223 219 218 219 226 231 233 235 240 243 242 240 239 243 248 250 251 255 256 255 256 257 257 258 257 254 254 258 260 260
216 216 217 218 220 222 222 220 216 217 222 225 224 222 221 225 230 234 235 238 243 245 246 251 254 256 261 265 266 267 264 261 260 259 255 253 254 257 260 262 264 266
218 218 219 220 221 223 224 220 216 217 223 225 226 227 230 234 238 240 240 240 243 247 250 256 260 262 266 271 272 273 271 267 265 263 258 254 255 259 265 268 268 269
219 221 222 221 223 226 227 224 222 221 223 223 223 226 231 236 240 244 245 244 244 246 250 256 261 265 268 271 272 273 272 270 269 267 263 260 259 261 267 271 270 270
214 219 221 220 223 227 229 228 227 226 226 227 227 229 235 239 243 246 248 247 245 246 250 255 259 262 266 269 270 271 273 272 271 270 268 267 264 263 266 269 269 272
211 215 219 221 224 227 228 229 230 229 231 236 238 242 246 249 251 253 253 251 249 247 251 254 256 258 261 265 267 268 271 272 269 268 268 268 267 264 264 265 269 273
216 217 220 224 227 228 229 230 230 229 231 238 244 248 250 251 252 254 254 254 251 250 253 256 256 254 255 259 262 265 267 270 270 269 267 266 265 262 260 262 268 273
222 221 224 229 231 231 231 232 234 234 234 239 244 247 249 250 250 250 251 251 250 250 253 255 256 254 253 254 256 259 263 266 267 267 266 264 261 258 258 260 263 269
224 224 228 234 235 234 234 235 237 238 239 240 242 244 247 250 251 252 251 251 250 250 250 251 253 254 254 254 255 257 260 263 263 262 262 261 259 257 257 257 258 261
223 225 229 233 234 234 236 238 239 240 241 241 241 243 245 248 252 254 255 255 253 252 251 251 251 251 252 253 254 255 256 257 258 259 259 258 256 257 257 257 256 257
223 226 228 230 233 236 239 241 242 242 243 243 243 244 246 248 251 254 257 260 259 257 256 255 254 254 254 253 254 254 254 253 256 258 260 259 257 256 256 256 255 255
225 228 231 233 237 240 241 242 244 245 246 245 244 244 245 246 248 251 255 260 262 261 260 260 260 259 259 259 257 256 253 253 255 258 259 260 260 258 257 256 255 255
227 231 234 238 241 243 243 244 246 247 247 246 244 244 247 250 253 257 260 261 263 263 263 265 265 264 263 263 261 257 253 252 254 257 257 258 259 259 258 255 254 254
231 234 238 241 246 249 249 249 250 251 252 252 252 252 254 258 262 265 266 265 264 264 263 264 266 266 265 264 262 259 255 253 254 256 255 255 256 255 254 252 251 251
236 240 244 248 252 257 260 260 259 260 262 265 266 265 264 264 265 266 267 266 264 263 262 262 263 264 264 264 264 263 261 260 260 259 256 254 253 252 250 247 245 245
242 245 250 255 257 259 263 265 265 266 269 272 275 277 275 271 269 268 268 266 264 263 261 260 261 263 266 269 269 268 268 266 263 260 257 255 252 251 251 250 248 248
Height
1581 1582 1584 1584 1585 1586 1587 1588 1588 1589 1590 1591 1591 1592 1592 1593 1593 1594 1594 1595 1595 1596 1596 1597 1597 1598 1598 1598 1599 1599 1599 1600 1600 1600 1601 1601 1601 1601 1601 1601 1601 1601
1581 1582 1583 1584 1584 1586 1586 1587 1588 1589 1590 1590 1591 1591 1592 1592 1593 1593 1594 1594 1594 1595 1596 1596 1597 1597 1597 1598 1598 1598 1599 1599 1599 1599 1600 1600 1600 1600 1600 1600 1600 1600
1580 1581 1582 1583 1584 1585 1586 1587 1588 1588 1589 1590 1590 1591 1591 1592 1592 1593 1593 1593 1594 1594 1595 1595 1596 1596 1597 1597 1597 1598 1598 1598 1599 1599 1599 1599 1599 1599 1599 1599 1599 1599
1579 1580 1581 1583 1583 1584 1586 1586 1587 1588 1588 1589 1590 1590 1591 1591 1592 1592 1593 1593 1593 1594 1594 1594 1595 1595 1596 1596 1597 1597 1597 1597 1598 1598 1598 1598 1598 1598 1598 1598 1598 1598
1578 1580 1581 1582 1583 1584 1585 1586 1586 1587 1588 1589 1589 1590 1590 1591 1591 1592 1592 1593 1593 1593 1593 1594 1594 1595 1595 1596 1596 1596 1596 1597 1597 1597 1597 1597 1597 1597 1597 1597 1597 1597
1578 1579 1580 1582 1583 1583 1584 1585 1586 1587 1587 1588 1589 1589 1590 1590 1591 1591 1591 1592 1592 1593 1593 1593 1594 1594 1594 1595 1595 1595 1595 1596 1596 1596 1596 1596 1596 1596 1596 1596 1596 1596
1577 1578 1580 1581 1582 1583 1583 1584 1585 1586 1587 1588 1588 1589 1589 1590 1590 1590 1591 1591 1591 1592 1592 1593 1593 1593 1594 1594 1594 1594 1594 1595 1595 1595 1595 1595 1595 1595 1595 1595 1595 1595
1576 1578 1579 1580 1581 1582 1583 1583 1585 1585 1586 1587 1587 1588 1589 1589 1589 1590 1590 1590 1591 1591 1592 1592 1592 1593 1593 1593 1593 1594 1594 1594 1594 1594 1594 1594 1594 1595 1595 1595 1595 1595
1576 1577 1578 1580 1580 1581 1582 1583 1584 1585 1586 1586 1587 1587 1588 1588 1589 1589 1589 1590 1590 1591 1591 1591 1592 1592 1592 1592 1592 1593 1593 1593 1593 1593 1593 1594 1594 1594 1594 1594 1594 1593
1574 1576 1577 1578 1579 1580 1581 1582 1583 1583 1584 1585 1585 1586 1587 1587 1588 1588 1589 1589 1589 1590 1590 1590 1591 1591 1591 1592 1592 1592 1592 1592 1592 1592 1592 1593 1593 1593 1593 1593 1593 1592
1573 1574 1575 1576 1577 1579 1580 1581 1582 1582 1583 1584 1584 1585 1586 1586 1587 1587 1587 1588 1588 1589 1589 1590 1590 1590 1590 1591 1591 1591 1591 1591 1591 1591 1591 1591 1591 1591 1591 1591 1591 1591
1571 1572 1573 1574 1575 1576 1578 1579 1580 1581 1582 1582 1583 1584 1585 1585 1586 1586 1586 1586 1587 1587 1588 1588 1589 1589 1589 1589 1590 1590 1590 1590 1590 1590 1590 1590 1590 1590 1590 1590 1590 1590
1569 1570 1571 1572 1573 1575 1576 1578 1579 1580 1581 1581 1582 1583 1584 1584 1584 1585 1585 1585 1586 1586 1586 1587 1587 1587 1588 1588 1588 1588 1588 1588 1589 1589 1589 1588 1589 1589 1589 1589 1589 1589
1567 1569 1570 1572 1573 1574 1575 1576 1577 1578 1579 1580 1581 1581 1582 1582 1582 1583 1584 1584 1584 1584 1585 1585 1585 1586 1586 1586 1587 1587 1587 1587 1587 1587 1587 1587 1587 1587 1587 1587 1587 1587
1566 1567 1569 1570 1571 1572 1573 1574 1575 1576 1577 1578 1579 1579 1580 1580 1581 1581 1582 1582 1582 1582 1583 1583 1583 1584 1584 1585 1585 1585 1585 1585 1585 1585 1585 1585 1586 1586 1586 1586 1586 1586
1565 1566 1567 1568 1569 1571 1572 1573 1573 1574 1575 1576 1577 1577 1578 1578 1579 1579 1580 1580 1580 1580 1581 1581 1581 1582 1583 1583 1584 1584 1584 1584 1584 1584 1583 1583 1584 1584 1584 1584 1584 1584
1563 1564 1565 1567 1568 1569 1570 1571 1572 1573 1573 1574 1575 1575 1576 1576 1577 1577 1577 1578 1578 1578 1579 1579 1579 1580 1580 1581 1582 1582 1582 1582 1582 1582 1582 1581 1582 1582 1582 1582 1582 1583
1561 1562 1564 1565 1566 1567 1568 1569 1570 1570 1571 1572 1572 1573 1573 1573 1574 1575 1575 1575 1576 1576 1576 1577 1577 1578 1578 1579 1579 1580 1580 1580 1581 1581 1580 1580 1580 1580 1580 1580 1581 1581
1560 1560 1562 1563 1564 1565 1566 1567 1567 1568 1569 1569 1569 1570 1570 1570 1571 1572 1572 1573 1573 1574 1574 1574 1575 1575 1576 1577 1577 1578 1578 1578 1579 1579 1578 1578 1578 1578 1578 1578 1578 1579
1558 1559 1560 1561 1562 1563 1564 1564 1565 1565 1566 1566 1566 1567 1567 1567 1568 1569 1569 1570 1571 1571 1572 1572 1573 1573 1574 1574 1575 1575 1576 1576 1576 1576 1576 1576 1576 1576 1576 1576 1576 1577
1556 1557 1558 1559 1560 1561 1562 1562 1563 1563 1564 1564 1564 1564 1564 1565 1565 1566 1566 1567 1568 1569 1570 1570 1570 1571 1571 1571 1572 1572 1572 1572 1572 1573 1573 1573 1573 1573 1573 1574 1574 1574
1554 1555 1556 1557 1557 1558 1559 1560 1561 1561 1562 1562 1561 1561 1560 1560 1560 1561 1563 1564 1565 1566 1567 1568 1568 1568 1568 1569 1569 1569 1569 1569 1569 1569 1570 1570 1570 1571 1571 1571 1571 1571
1552 1553 1553 1554 1555 1555 1556 1557 1558 1559 1559 1558 1557 1556 1556 1555 1557 1559 1561 1562 1562 1563 1564 1564 1565 1565 1565 1565 1566 1566 1566 1565 1565 1565 1565 1566 1567 1568 1568 1568 1568 1568
1550 1551 1551 1552 1553 1553 1553 1555 1555 1556 1556 1556 1556 1556 1555 1555 1556 1558 1559 1559 1560 1561 1561 1561 1561 1561 1561 1561 1561 1561 1562 1562 1562 1562 1562 1563 1563 1564 1564 1564 1564 1564
1548 1549 1550 1551 1551 1552 1552 1553 1554 1554 1554 1554 1554 1554 1554 1554 1555 1556 1556 1557 1557 1557 1557 1557 1557 1557 1557 1557 1557 1557 1557 1558 1558 1558 1559 1559 1560 1560 1560 1561 1560 1560
1547 1547 1548 1549 1550 1551 1552 1552 1552 1552 1552 1551 1551 1551 1552 1553 1554 1553 1553 1553 1554 1554 1553 1554 1553 1553 1553 1553 1553 1554 1554 1553 1553 1553 1554 1554 1555 1555 1556 1557 1557 1558